Glen Ullin, North Dakota
Current Conditions -  °F | °C
As of 3:35 AM on Monday 20 Oct 2014 (Local Time) from KHZE Reporting Station
Clear Clear  
Wind Chill: 28°   Ceiling: Unl
Heat Index: 28°   Visibility: 10mi
Dew Point: 27°   Wind: 0mph
Humidity: 93%   Direction: NA
Pressure: 30.04"   Gusts: NA
Location:  46.82°N, 101.83°W
Report Text: KHZE 200935Z AUTO 00000KT 10SM CLR M02/M03 A3004 RMK AO2
Loading
Personal Weather Stations






























Interactive Weather Map
Tropical Storm Tracking
New forecast layout! Learn more

10-Day Weather Forecast

Advertisements
Track Severe Weather on mobile